Time,TemperatureF,DewpointF,PressureIn,WindDirection,WindDirectionDegrees,WindSpeedMPH,WindSpeedGustMPH,Humidity,HourlyPrecipIn,Conditions,Clouds,dailyrainin,SoftwareType,DateUTC
2013-06-06 00:02:00,60.6,44.8,30.20,South,180,0.0,3.0,56,0.00,,,0.00,meteohub,2013-06-06 04:02:00,
2013-06-06 00:07:00,60.6,44.8,30.20,South,180,1.0,2.0,56,0.00,,,0.00,meteohub,2013-06-06 04:07:00,
2013-06-06 00:12:00,60.6,44.8,30.20,South,180,0.0,3.0,56,0.00,,,0.00,meteohub,2013-06-06 04:12:00,
2013-06-06 00:17:00,60.6,44.8,30.20,SW,225,0.0,3.0,56,0.00,,,0.00,meteohub,2013-06-06 04:17:00,
2013-06-06 00:22:00,60.8,44.6,30.20,SSW,202,0.0,3.0,55,0.00,,,0.00,meteohub,2013-06-06 04:22:00,
2013-06-06 00:27:00,60.8,44.6,30.20,SSW,202,0.0,2.0,55,0.00,,,0.00,meteohub,2013-06-06 04:27:00,
2013-06-06 00:32:00,60.8,44.6,30.20,SSE,158,2.0,2.0,55,0.00,,,0.00,meteohub,2013-06-06 04:32:00,
2013-06-06 00:37:00,60.8,44.6,30.20,South,180,0.0,2.0,55,0.00,,,0.00,meteohub,2013-06-06 04:37:00,
2013-06-06 00:42:00,60.8,44.6,30.20,SSW,202,0.0,2.0,55,0.00,,,0.00,meteohub,2013-06-06 04:42:00,
2013-06-06 00:47:00,60.8,44.6,30.20,SSW,202,1.0,2.0,55,0.00,,,0.00,meteohub,2013-06-06 04:47:00,
2013-06-06 00:52:00,60.6,44.8,30.20,South,180,2.0,2.0,56,0.00,,,0.00,meteohub,2013-06-06 04:52:00,
2013-06-06 00:57:00,60.6,44.8,30.20,SE,135,1.0,4.0,56,0.00,,,0.00,meteohub,2013-06-06 04:57:00,
2013-06-06 01:07:00,60.4,44.6,30.20,SW,225,2.0,4.0,56,0.00,,,0.00,meteohub,2013-06-06 05:07:00,
2013-06-06 01:12:00,60.4,44.6,30.20,SE,135,1.0,4.0,56,0.00,,,0.00,meteohub,2013-06-06 05:12:00,
2013-06-06 01:17:00,60.3,44.6,30.20,South,180,2.0,4.0,56,0.00,,,0.00,meteohub,2013-06-06 05:17:00,
2013-06-06 01:27:00,59.9,44.2,30.20,SW,225,2.0,3.0,56,0.00,,,0.00,meteohub,2013-06-06 05:27:00,
2013-06-06 01:32:00,59.9,44.2,30.20,SW,225,0.0,3.0,56,0.00,,,0.00,meteohub,2013-06-06 05:32:00,
2013-06-06 01:37:00,59.7,44.1,30.20,WSW,248,2.0,3.0,56,0.00,,,0.00,meteohub,2013-06-06 05:37:00,
2013-06-06 01:47:00,59.5,44.2,30.20,SW,225,0.0,3.0,57,0.00,,,0.00,meteohub,2013-06-06 05:47:00,
2013-06-06 01:52:00,59.5,44.2,30.20,West,270,0.0,4.0,57,0.00,,,0.00,meteohub,2013-06-06 05:52:00,
2013-06-06 01:57:00,59.4,44.1,30.20,SSW,202,0.0,4.0,57,0.00,,,0.00,meteohub,2013-06-06 05:57:00,
2013-06-06 02:02:00,59.4,44.1,30.20,WSW,248,0.0,4.0,57,0.00,,,0.00,meteohub,2013-06-06 06:02:00,
2013-06-06 02:07:00,59.2,44.4,30.23,SW,225,1.0,2.0,58,0.00,,,0.00,meteohub,2013-06-06 06:07:00,
2013-06-06 02:12:00,59.0,44.2,30.23,South,180,1.0,4.0,58,0.00,,,0.00,meteohub,2013-06-06 06:12:00,
2013-06-06 02:17:00,59.0,44.2,30.23,SSW,202,0.0,4.0,58,0.00,,,0.00,meteohub,2013-06-06 06:17:00,
2013-06-06 02:27:00,58.5,44.6,30.23,SSW,202,0.0,1.0,60,0.00,,,0.00,meteohub,2013-06-06 06:27:00,
2013-06-06 02:37:00,58.1,44.2,30.23,SSW,202,0.0,0.0,60,0.00,,,0.00,meteohub,2013-06-06 06:37:00,
2013-06-06 02:47:00,57.7,44.8,30.26,SSW,202,0.0,0.0,62,0.00,,,0.00,meteohub,2013-06-06 06:47:00,
2013-06-06 02:52:00,57.7,44.8,30.26,SSW,202,0.0,0.0,62,0.00,,,0.00,meteohub,2013-06-06 06:52:00,
2013-06-06 02:57:00,57.6,44.6,30.23,SSW,202,0.0,0.0,62,0.00,,,0.00,meteohub,2013-06-06 06:57:00,
2013-06-06 03:07:00,57.4,45.7,30.26,South,180,0.0,0.0,65,0.00,,,0.00,meteohub,2013-06-06 07:07:00,
2013-06-06 03:12:00,57.4,46.2,30.26,WSW,248,0.0,2.0,66,0.00,,,0.00,meteohub,2013-06-06 07:12:00,
2013-06-06 03:17:00,57.6,45.9,30.26,South,180,1.0,2.0,65,0.00,,,0.00,meteohub,2013-06-06 07:17:00,
2013-06-06 03:22:00,57.6,46.2,30.26,South,180,2.0,4.0,66,0.00,,,0.00,meteohub,2013-06-06 07:22:00,
2013-06-06 03:27:00,57.6,45.9,30.23,SW,225,2.0,4.0,65,0.00,,,0.00,meteohub,2013-06-06 07:27:00,
2013-06-06 03:32:00,57.6,45.9,30.23,South,180,0.0,3.0,65,0.00,,,0.00,meteohub,2013-06-06 07:32:00,
2013-06-06 03:37:00,57.4,45.7,30.23,SSW,202,0.0,2.0,65,0.00,,,0.00,meteohub,2013-06-06 07:37:00,
2013-06-06 03:42:00,57.4,45.7,30.23,SSW,202,0.0,2.0,65,0.00,,,0.00,meteohub,2013-06-06 07:42:00,
2013-06-06 03:47:00,57.2,46.4,30.23,South,180,0.0,0.0,67,0.00,,,0.00,meteohub,2013-06-06 07:47:00,
2013-06-06 03:52:00,57.0,46.2,30.23,SW,225,0.0,3.0,67,0.00,,,0.00,meteohub,2013-06-06 07:52:00,
2013-06-06 03:57:00,57.0,46.2,30.23,South,180,1.0,3.0,67,0.00,,,0.00,meteohub,2013-06-06 07:57:00,
2013-06-06 04:02:00,57.0,46.2,30.23,SSE,158,0.0,3.0,67,0.00,,,0.00,meteohub,2013-06-06 08:02:00,
2013-06-06 04:07:00,57.0,46.2,30.23,SSW,202,0.0,4.0,67,0.00,,,0.00,meteohub,2013-06-06 08:07:00,
2013-06-06 04:12:00,56.8,46.0,30.23,SW,225,0.0,4.0,67,0.00,,,0.00,meteohub,2013-06-06 08:12:00,
2013-06-06 04:17:00,56.8,46.0,30.23,South,180,0.0,2.0,67,0.00,,,0.00,meteohub,2013-06-06 08:17:00,
2013-06-06 04:22:00,56.8,46.4,30.23,South,180,0.0,2.0,68,0.00,,,0.00,meteohub,2013-06-06 08:22:00,
2013-06-06 04:27:00,56.8,46.4,30.23,SW,225,0.0,2.0,68,0.00,,,0.00,meteohub,2013-06-06 08:27:00,
2013-06-06 04:37:00,56.5,46.4,30.23,South,180,0.0,3.0,69,0.00,,,0.00,meteohub,2013-06-06 08:37:00,
2013-06-06 04:42:00,56.3,46.2,30.23,SSW,202,0.0,3.0,69,0.00,,,0.00,meteohub,2013-06-06 08:42:00,
2013-06-06 04:47:00,56.1,46.0,30.23,SSW,202,0.0,2.0,69,0.00,,,0.00,meteohub,2013-06-06 08:47:00,
2013-06-06 04:52:00,55.9,46.4,30.23,SSW,202,0.0,1.0,70,0.00,,,0.00,meteohub,2013-06-06 08:52:00,
2013-06-06 04:57:00,55.9,46.4,30.23,SSW,202,0.0,1.0,70,0.00,,,0.00,meteohub,2013-06-06 08:57:00,
2013-06-06 05:02:00,55.8,46.2,30.23,SSW,202,0.0,0.0,70,0.00,,,0.00,meteohub,2013-06-06 09:02:00,
2013-06-06 05:07:00,55.8,46.6,30.23,SSW,202,0.0,2.0,71,0.00,,,0.00,meteohub,2013-06-06 09:07:00,
2013-06-06 05:12:00,55.6,46.4,30.23,SSW,202,0.0,2.0,71,0.00,,,0.00,meteohub,2013-06-06 09:12:00,
2013-06-06 05:17:00,55.6,46.8,30.23,SSW,202,0.0,1.0,72,0.00,,,0.00,meteohub,2013-06-06 09:17:00,
2013-06-06 05:22:00,55.2,46.4,30.23,SSW,202,0.0,1.0,72,0.00,,,0.00,meteohub,2013-06-06 09:22:00,
2013-06-06 05:27:00,55.0,46.2,30.23,SSW,202,0.0,0.0,72,0.00,,,0.00,meteohub,2013-06-06 09:27:00,
2013-06-06 05:32:00,54.9,46.4,30.23,SSW,202,0.0,0.0,73,0.00,,,0.00,meteohub,2013-06-06 09:32:00,
2013-06-06 05:37:00,54.9,46.8,30.23,SSW,202,0.0,0.0,74,0.00,,,0.00,meteohub,2013-06-06 09:37:00,
2013-06-06 05:47:00,54.9,46.8,30.23,SW,225,0.0,0.0,74,0.00,,,0.00,meteohub,2013-06-06 09:47:00,
2013-06-06 05:52:00,54.7,46.6,30.23,SW,225,0.0,0.0,74,0.00,,,0.00,meteohub,2013-06-06 09:52:00,
2013-06-06 05:57:00,54.3,46.2,30.23,SSW,202,0.0,0.0,74,0.00,,,0.00,meteohub,2013-06-06 09:57:00,
2013-06-06 06:02:00,54.3,46.6,30.23,SSW,202,0.0,0.0,75,0.00,,,0.00,meteohub,2013-06-06 10:02:00,
2013-06-06 06:07:00,54.5,46.8,30.23,South,180,0.0,0.0,75,0.00,,,0.00,meteohub,2013-06-06 10:07:00,
2013-06-06 06:12:00,54.5,47.1,30.23,South,180,0.0,0.0,76,0.00,,,0.00,meteohub,2013-06-06 10:12:00,
2013-06-06 06:17:00,54.7,47.7,30.23,South,180,0.0,0.0,77,0.00,,,0.00,meteohub,2013-06-06 10:17:00,
2013-06-06 06:27:00,55.2,47.8,30.23,South,180,2.0,2.0,76,0.00,,,0.00,meteohub,2013-06-06 10:27:00,
2013-06-06 06:32:00,55.6,47.8,30.23,South,180,0.0,2.0,75,0.00,,,0.00,meteohub,2013-06-06 10:32:00,
2013-06-06 06:37:00,55.8,47.7,30.23,SSW,202,0.0,2.0,74,0.00,,,0.00,meteohub,2013-06-06 10:37:00,
2013-06-06 06:42:00,55.9,47.8,30.23,South,180,0.0,2.0,74,0.00,,,0.00,meteohub,2013-06-06 10:42:00,
2013-06-06 06:47:00,56.1,48.0,30.23,South,180,0.0,1.0,74,0.00,,,0.00,meteohub,2013-06-06 10:47:00,
2013-06-06 06:52:00,56.3,48.2,30.20,SSW,202,0.0,1.0,74,0.00,,,0.00,meteohub,2013-06-06 10:52:00,
2013-06-06 06:57:00,56.3,48.2,30.20,SSW,202,0.0,0.0,74,0.00,,,0.00,meteohub,2013-06-06 10:57:00,
2013-06-06 07:02:00,56.5,48.7,30.20,SSW,202,0.0,0.0,75,0.00,,,0.00,meteohub,2013-06-06 11:02:00,
2013-06-06 07:07:00,56.7,48.9,30.23,SSW,202,0.0,0.0,75,0.00,,,0.00,meteohub,2013-06-06 11:07:00,
2013-06-06 07:12:00,56.7,48.9,30.23,SSW,202,0.0,0.0,75,0.00,,,0.00,meteohub,2013-06-06 11:12:00,
2013-06-06 07:17:00,56.8,49.1,30.23,SSW,202,0.0,0.0,75,0.00,,,0.00,meteohub,2013-06-06 11:17:00,
2013-06-06 07:22:00,57.0,49.1,30.23,South,180,0.0,0.0,75,0.00,,,0.00,meteohub,2013-06-06 11:22:00,
2013-06-06 07:27:00,57.6,49.3,30.23,SSE,158,2.0,2.0,74,0.00,,,0.00,meteohub,2013-06-06 11:27:00,
2013-06-06 07:32:00,57.7,49.1,30.23,SSW,202,0.0,3.0,73,0.00,,,0.00,meteohub,2013-06-06 11:32:00,
2013-06-06 07:37:00,57.9,49.6,30.23,South,180,1.0,4.0,74,0.00,,,0.00,meteohub,2013-06-06 11:37:00,
2013-06-06 07:47:00,58.5,50.2,30.23,SSE,158,0.0,3.0,74,0.00,,,0.00,meteohub,2013-06-06 11:47:00,
2013-06-06 07:52:00,58.6,50.0,30.23,South,180,0.0,3.0,73,0.00,,,0.00,meteohub,2013-06-06 11:52:00,
2013-06-06 07:57:00,58.8,50.2,30.23,South,180,0.0,3.0,73,0.00,,,0.00,meteohub,2013-06-06 11:57:00,
2013-06-06 08:02:00,59.0,50.0,30.23,SW,225,0.0,2.0,72,0.00,,,0.00,meteohub,2013-06-06 12:02:00,
2013-06-06 08:07:00,59.4,50.4,30.23,SSE,158,1.0,2.0,72,0.00,,,0.00,meteohub,2013-06-06 12:07:00,
2013-06-06 08:12:00,59.9,50.5,30.23,SW,225,0.0,3.0,71,0.00,,,0.00,meteohub,2013-06-06 12:12:00,
2013-06-06 08:17:00,60.3,50.4,30.23,South,180,2.0,3.0,70,0.00,,,0.00,meteohub,2013-06-06 12:17:00,
2013-06-06 08:22:00,60.4,49.8,30.23,South,180,2.0,3.0,68,0.00,,,0.00,meteohub,2013-06-06 12:22:00,
2013-06-06 08:27:00,60.8,49.8,30.23,SSW,202,1.0,3.0,67,0.00,,,0.00,meteohub,2013-06-06 12:27:00,
2013-06-06 08:32:00,61.3,49.5,30.23,SSW,202,0.0,3.0,65,0.00,,,0.00,meteohub,2013-06-06 12:32:00,
2013-06-06 08:37:00,61.5,50.0,30.23,SSE,158,0.0,3.0,66,0.00,,,0.00,meteohub,2013-06-06 12:37:00,
2013-06-06 08:47:00,62.1,49.8,30.23,SSE,158,1.0,3.0,64,0.00,,,0.00,meteohub,2013-06-06 12:47:00,
2013-06-06 08:52:00,62.6,49.5,30.23,SSW,202,0.0,3.0,62,0.00,,,0.00,meteohub,2013-06-06 12:52:00,
2013-06-06 09:02:00,63.5,48.0,30.23,SW,225,0.0,3.0,57,0.00,,,0.00,meteohub,2013-06-06 13:02:00,
2013-06-06 09:07:00,63.7,48.6,30.23,WSW,248,0.0,3.0,58,0.00,,,0.00,meteohub,2013-06-06 13:07:00,
2013-06-06 09:17:00,63.9,48.4,30.23,NW,315,0.0,2.0,57,0.00,,,0.00,meteohub,2013-06-06 13:17:00,
2013-06-06 09:22:00,64.2,48.2,30.23,WNW,292,0.0,1.0,56,0.00,,,0.00,meteohub,2013-06-06 13:22:00,
2013-06-06 09:27:00,64.4,47.5,30.23,NNW,338,0.0,0.0,54,0.00,,,0.00,meteohub,2013-06-06 13:27:00,
2013-06-06 09:32:00,64.8,47.7,30.23,NNW,338,0.0,0.0,54,0.00,,,0.00,meteohub,2013-06-06 13:32:00,
2013-06-06 09:42:00,65.7,47.7,30.23,East,90,0.0,0.0,52,0.00,,,0.00,meteohub,2013-06-06 13:42:00,
2013-06-06 09:47:00,66.0,47.8,30.23,West,270,0.0,2.0,52,0.00,,,0.00,meteohub,2013-06-06 13:47:00,
2013-06-06 09:57:00,66.2,47.1,30.20,NW,315,0.0,0.0,50,0.00,,,0.00,meteohub,2013-06-06 13:57:00,
2013-06-06 10:02:00,66.6,47.3,30.20,South,180,3.0,0.0,50,0.00,,,0.00,meteohub,2013-06-06 14:02:00,
2013-06-06 10:07:00,66.9,46.6,30.23,NNW,338,2.0,3.0,48,0.00,,,0.00,meteohub,2013-06-06 14:07:00,
2013-06-06 10:12:00,67.1,47.3,30.23,WSW,248,3.0,3.0,49,0.00,,,0.00,meteohub,2013-06-06 14:12:00,
2013-06-06 10:22:00,67.5,46.0,30.23,WNW,292,2.0,4.0,46,0.00,,,0.00,meteohub,2013-06-06 14:22:00,
2013-06-06 10:27:00,67.5,46.6,30.23,SSW,202,0.0,4.0,47,0.00,,,0.00,meteohub,2013-06-06 14:27:00,
2013-06-06 10:37:00,67.8,46.2,30.23,WSW,248,0.0,4.0,46,0.00,,,0.00,meteohub,2013-06-06 14:37:00,
2013-06-06 10:42:00,68.0,44.8,30.23,South,180,3.0,4.0,43,0.00,,,0.00,meteohub,2013-06-06 14:42:00,
2013-06-06 10:47:00,68.2,46.0,30.23,WSW,248,0.0,5.0,45,0.00,,,0.00,meteohub,2013-06-06 14:47:00,
2013-06-06 10:57:00,68.4,45.7,30.23,ESE,112,0.0,5.0,44,0.00,,,0.00,meteohub,2013-06-06 14:57:00,
2013-06-06 11:02:00,68.7,45.3,30.23,SW,225,2.0,5.0,43,0.00,,,0.00,meteohub,2013-06-06 15:02:00,
2013-06-06 11:07:00,68.9,46.0,30.23,SSE,158,1.0,5.0,44,0.00,,,0.00,meteohub,2013-06-06 15:07:00,
2013-06-06 11:17:00,69.4,47.8,30.23,SW,225,2.0,5.0,46,0.00,,,0.00,meteohub,2013-06-06 15:17:00,
2013-06-06 11:27:00,69.4,44.8,30.23,ESE,112,1.0,4.0,41,0.00,,,0.00,meteohub,2013-06-06 15:27:00,
2013-06-06 11:32:00,69.6,45.0,30.23,ESE,112,1.0,4.0,41,0.00,,,0.00,meteohub,2013-06-06 15:32:00,
2013-06-06 11:42:00,69.6,45.5,30.23,SSE,158,1.0,5.0,42,0.00,,,0.00,meteohub,2013-06-06 15:42:00,
2013-06-06 11:47:00,69.8,45.7,30.23,NNE,22,3.0,5.0,42,0.00,,,0.00,meteohub,2013-06-06 15:47:00,
2013-06-06 11:52:00,70.2,46.0,30.23,West,270,0.0,6.0,42,0.00,,,0.00,meteohub,2013-06-06 15:52:00,
2013-06-06 11:57:00,70.3,46.2,30.23,SW,225,0.0,6.0,42,0.00,,,0.00,meteohub,2013-06-06 15:57:00,
2013-06-06 12:07:00,70.5,46.4,30.20,SW,225,4.0,5.0,42,0.00,,,0.00,meteohub,2013-06-06 16:07:00,
2013-06-06 12:17:00,71.1,46.2,30.20,North,0,4.0,5.0,41,0.00,,,0.00,meteohub,2013-06-06 16:17:00,
2013-06-06 12:22:00,71.4,45.9,30.23,ENE,68,5.0,6.0,40,0.00,,,0.00,meteohub,2013-06-06 16:22:00,
2013-06-06 12:32:00,71.6,45.3,30.23,WSW,248,3.0,9.0,39,0.00,,,0.00,meteohub,2013-06-06 16:32:00,
2013-06-06 12:42:00,71.8,44.8,30.20,ENE,68,5.0,6.0,38,0.00,,,0.00,meteohub,2013-06-06 16:42:00,
2013-06-06 12:47:00,71.8,46.2,30.20,SE,135,2.0,6.0,40,0.00,,,0.00,meteohub,2013-06-06 16:47:00,
2013-06-06 12:52:00,72.1,46.6,30.20,WSW,248,4.0,6.0,40,0.00,,,0.00,meteohub,2013-06-06 16:52:00,
2013-06-06 12:57:00,72.0,46.4,30.20,WNW,292,3.0,6.0,40,0.00,,,0.00,meteohub,2013-06-06 16:57:00,
2013-06-06 13:02:00,71.6,44.6,30.20,SSW,202,1.0,11.0,38,0.00,,,0.00,meteohub,2013-06-06 17:02:00,
2013-06-06 13:07:00,71.4,45.1,30.20,SSW,202,3.0,11.0,39,0.00,,,0.00,meteohub,2013-06-06 17:07:00,
2013-06-06 13:17:00,71.6,44.6,30.20,SSW,202,1.0,9.0,38,0.00,,,0.00,meteohub,2013-06-06 17:17:00,
2013-06-06 13:22:00,71.6,43.3,30.20,NNE,22,3.0,9.0,36,0.00,,,0.00,meteohub,2013-06-06 17:22:00,
2013-06-06 13:27:00,71.6,44.6,30.20,NNE,22,3.0,9.0,38,0.00,,,0.00,meteohub,2013-06-06 17:27:00,
2013-06-06 13:37:00,71.4,42.4,30.20,NW,315,3.0,6.0,35,0.00,,,0.00,meteohub,2013-06-06 17:37:00,
2013-06-06 13:47:00,71.4,43.2,30.20,East,90,2.0,8.0,36,0.00,,,0.00,meteohub,2013-06-06 17:47:00,
2013-06-06 13:52:00,71.4,43.2,30.17,NNE,22,2.0,8.0,36,0.00,,,0.00,meteohub,2013-06-06 17:52:00,
2013-06-06 14:02:00,71.4,42.4,30.17,ENE,68,5.0,7.0,35,0.00,,,0.00,meteohub,2013-06-06 18:02:00,
2013-06-06 14:07:00,71.2,42.3,30.17,SSW,202,2.0,9.0,35,0.00,,,0.00,meteohub,2013-06-06 18:07:00,
2013-06-06 14:12:00,71.1,42.1,30.17,WSW,248,6.0,9.0,35,0.00,,,0.00,meteohub,2013-06-06 18:12:00,
2013-06-06 14:17:00,71.1,42.8,30.17,WSW,248,3.0,9.0,36,0.00,,,0.00,meteohub,2013-06-06 18:17:00,
2013-06-06 14:22:00,71.1,42.8,30.14,ESE,112,3.0,7.0,36,0.00,,,0.00,meteohub,2013-06-06 18:22:00,
2013-06-06 14:27:00,71.1,43.5,30.14,WNW,292,1.0,7.0,37,0.00,,,0.00,meteohub,2013-06-06 18:27:00,
2013-06-06 14:37:00,70.7,43.9,30.17,SW,225,3.0,7.0,38,0.00,,,0.00,meteohub,2013-06-06 18:37:00,
2013-06-06 14:42:00,70.7,43.9,30.17,SW,225,0.0,5.0,38,0.00,,,0.00,meteohub,2013-06-06 18:42:00,
2013-06-06 14:52:00,70.3,43.5,30.17,SSW,202,2.0,6.0,38,0.00,,,0.00,meteohub,2013-06-06 18:52:00,
2013-06-06 14:57:00,70.3,44.2,30.17,WSW,248,2.0,6.0,39,0.00,,,0.00,meteohub,2013-06-06 18:57:00,
2013-06-06 15:07:00,70.2,44.1,30.14,WSW,248,3.0,6.0,39,0.00,,,0.00,meteohub,2013-06-06 19:07:00,
2013-06-06 15:12:00,70.2,44.1,30.14,South,180,10.0,10.0,39,0.00,,,0.00,meteohub,2013-06-06 19:12:00,
2013-06-06 15:17:00,70.2,44.1,30.14,South,180,5.0,10.0,39,0.00,,,0.00,meteohub,2013-06-06 19:17:00,
2013-06-06 15:22:00,70.0,43.2,30.17,WSW,248,1.0,10.0,38,0.00,,,0.00,meteohub,2013-06-06 19:22:00,
2013-06-06 15:27:00,70.0,43.2,30.17,NNE,22,3.0,10.0,38,0.00,,,0.00,meteohub,2013-06-06 19:27:00,
2013-06-06 15:32:00,70.0,43.2,30.17,SW,225,4.0,6.0,38,0.00,,,0.00,meteohub,2013-06-06 19:32:00,
2013-06-06 15:37:00,70.0,42.6,30.17,SSE,158,0.0,6.0,37,0.00,,,0.00,meteohub,2013-06-06 19:37:00,
2013-06-06 15:42:00,69.8,42.4,30.17,NNE,22,2.0,6.0,37,0.00,,,0.00,meteohub,2013-06-06 19:42:00,
2013-06-06 15:47:00,69.6,42.3,30.17,WSW,248,3.0,6.0,37,0.00,,,0.00,meteohub,2013-06-06 19:47:00,
2013-06-06 15:52:00,69.6,43.0,30.17,SSE,158,2.0,6.0,38,0.00,,,0.00,meteohub,2013-06-06 19:52:00,
2013-06-06 15:57:00,69.4,42.8,30.17,South,180,4.0,6.0,38,0.00,,,0.00,meteohub,2013-06-06 19:57:00,
2013-06-06 16:02:00,69.4,42.8,30.17,SSE,158,2.0,6.0,38,0.00,,,0.00,meteohub,2013-06-06 20:02:00,
2013-06-06 16:07:00,69.3,41.9,30.17,West,270,3.0,6.0,37,0.00,,,0.00,meteohub,2013-06-06 20:07:00,
2013-06-06 16:17:00,69.1,42.4,30.17,SSE,158,3.0,6.0,38,0.00,,,0.00,meteohub,2013-06-06 20:17:00,
2013-06-06 16:27:00,68.9,43.0,30.17,SSW,202,2.0,4.0,39,0.00,,,0.00,meteohub,2013-06-06 20:27:00,
2013-06-06 16:32:00,68.7,42.8,30.17,East,90,2.0,5.0,39,0.00,,,0.00,meteohub,2013-06-06 20:32:00,
2013-06-06 16:37:00,68.5,42.6,30.17,WNW,292,1.0,5.0,39,0.00,,,0.00,meteohub,2013-06-06 20:37:00,
2013-06-06 16:42:00,68.4,42.4,30.17,WSW,248,3.0,5.0,39,0.00,,,0.00,meteohub,2013-06-06 20:42:00,
2013-06-06 16:47:00,68.2,41.7,30.17,SW,225,3.0,6.0,38,0.00,,,0.00,meteohub,2013-06-06 20:47:00,
2013-06-06 16:52:00,68.2,41.7,30.17,WSW,248,1.0,6.0,38,0.00,,,0.00,meteohub,2013-06-06 20:52:00,
2013-06-06 16:57:00,68.0,40.8,30.17,SW,225,0.0,6.0,37,0.00,,,0.00,meteohub,2013-06-06 20:57:00,
2013-06-06 17:02:00,68.0,41.5,30.17,SW,225,3.0,6.0,38,0.00,,,0.00,meteohub,2013-06-06 21:02:00,
2013-06-06 17:07:00,67.8,41.9,30.17,WSW,248,2.0,6.0,39,0.00,,,0.00,meteohub,2013-06-06 21:07:00,
2013-06-06 17:12:00,67.8,41.9,30.17,WSW,248,0.0,4.0,39,0.00,,,0.00,meteohub,2013-06-06 21:12:00,
2013-06-06 17:17:00,67.6,41.2,30.17,North,0,4.0,4.0,38,0.00,,,0.00,meteohub,2013-06-06 21:17:00,
2013-06-06 17:22:00,67.6,40.5,30.17,West,270,1.0,6.0,37,0.00,,,0.00,meteohub,2013-06-06 21:22:00,
2013-06-06 17:27:00,67.6,41.2,30.17,South,180,3.0,6.0,38,0.00,,,0.00,meteohub,2013-06-06 21:27:00,
2013-06-06 17:37:00,67.3,40.8,30.17,SE,135,2.0,7.0,38,0.00,,,0.00,meteohub,2013-06-06 21:37:00,
2013-06-06 17:47:00,67.1,40.6,30.17,WNW,292,2.0,7.0,38,0.00,,,0.00,meteohub,2013-06-06 21:47:00,
2013-06-06 17:52:00,67.1,41.4,30.17,SSE,158,3.0,6.0,39,0.00,,,0.00,meteohub,2013-06-06 21:52:00,
2013-06-06 18:02:00,66.7,42.3,30.17,SSE,158,2.0,6.0,41,0.00,,,0.00,meteohub,2013-06-06 22:02:00,
2013-06-06 18:07:00,66.7,43.5,30.17,WNW,292,3.0,4.0,43,0.00,,,0.00,meteohub,2013-06-06 22:07:00,
2013-06-06 18:17:00,66.4,44.4,30.17,West,270,1.0,5.0,45,0.00,,,0.00,meteohub,2013-06-06 22:17:00,
2013-06-06 18:22:00,66.4,45.0,30.17,SSW,202,0.0,5.0,46,0.00,,,0.00,meteohub,2013-06-06 22:22:00,
2013-06-06 18:27:00,66.2,44.8,30.17,SSW,202,0.0,5.0,46,0.00,,,0.00,meteohub,2013-06-06 22:27:00,
2013-06-06 18:37:00,66.0,45.3,30.17,WSW,248,1.0,5.0,47,0.00,,,0.00,meteohub,2013-06-06 22:37:00,
2013-06-06 18:42:00,66.0,45.3,30.17,SSW,202,3.0,5.0,47,0.00,,,0.00,meteohub,2013-06-06 22:42:00,
2013-06-06 18:47:00,65.8,45.1,30.17,ESE,112,0.0,5.0,47,0.00,,,0.00,meteohub,2013-06-06 22:47:00,
2013-06-06 18:57:00,65.7,45.5,30.17,SSW,202,1.0,4.0,48,0.00,,,0.00,meteohub,2013-06-06 22:57:00,
2013-06-06 19:02:00,65.5,45.3,30.17,SSW,202,0.0,3.0,48,0.00,,,0.00,meteohub,2013-06-06 23:02:00,
2013-06-06 19:07:00,65.3,45.1,30.17,SSE,158,1.0,3.0,48,0.00,,,0.00,meteohub,2013-06-06 23:07:00,
2013-06-06 19:12:00,65.1,45.0,30.17,SSW,202,0.0,3.0,48,0.00,,,0.00,meteohub,2013-06-06 23:12:00,
2013-06-06 19:17:00,65.1,45.0,30.17,SSW,202,0.0,4.0,48,0.00,,,0.00,meteohub,2013-06-06 23:17:00,
2013-06-06 19:22:00,64.9,44.8,30.17,SSW,202,0.0,4.0,48,0.00,,,0.00,meteohub,2013-06-06 23:22:00,
2013-06-06 19:27:00,64.9,44.8,30.17,South,180,0.0,2.0,48,0.00,,,0.00,meteohub,2013-06-06 23:27:00,
2013-06-06 19:37:00,64.4,44.2,30.17,South,180,2.0,2.0,48,0.00,,,0.00,meteohub,2013-06-06 23:37:00,
2013-06-06 19:42:00,64.4,44.2,30.17,South,180,2.0,2.0,48,0.00,,,0.00,meteohub,2013-06-06 23:42:00,
2013-06-06 19:47:00,64.2,44.6,30.17,SSW,202,1.0,3.0,49,0.00,,,0.00,meteohub,2013-06-06 23:47:00,
2013-06-06 19:52:00,64.0,44.6,30.17,SW,225,3.0,3.0,49,0.00,,,0.00,meteohub,2013-06-06 23:52:00,
2013-06-06 19:57:00,63.9,44.4,30.17,SSW,202,0.0,3.0,49,0.00,,,0.00,meteohub,2013-06-06 23:57:00,
2013-06-06 20:02:00,63.9,44.4,30.17,WSW,248,0.0,3.0,49,0.00,,,0.00,meteohub,2013-06-07 00:02:00,
2013-06-06 20:07:00,63.7,44.2,30.17,West,270,0.0,3.0,49,0.00,,,0.00,meteohub,2013-06-07 00:07:00,
2013-06-06 20:17:00,63.5,45.1,30.17,SW,225,0.0,2.0,51,0.00,,,0.00,meteohub,2013-06-07 00:17:00,
2013-06-06 20:22:00,63.5,44.6,30.17,WSW,248,0.0,3.0,50,0.00,,,0.00,meteohub,2013-06-07 00:22:00,
2013-06-06 20:27:00,63.5,44.6,30.20,SSE,158,0.0,3.0,50,0.00,,,0.00,meteohub,2013-06-07 00:27:00,
2013-06-06 20:37:00,63.3,44.4,30.20,SSW,202,0.0,1.0,50,0.00,,,0.00,meteohub,2013-06-07 00:37:00,
2013-06-06 20:47:00,63.0,44.1,30.20,NW,315,0.0,3.0,50,0.00,,,0.00,meteohub,2013-06-07 00:47:00,
2013-06-06 20:52:00,62.8,44.4,30.20,NE,45,1.0,4.0,51,0.00,,,0.00,meteohub,2013-06-07 00:52:00,
2013-06-06 21:02:00,62.2,44.4,30.17,ENE,68,0.0,4.0,52,0.00,,,0.00,meteohub,2013-06-07 01:02:00,
2013-06-06 21:07:00,62.2,44.4,30.17,NE,45,0.0,2.0,52,0.00,,,0.00,meteohub,2013-06-07 01:07:00,
2013-06-06 21:12:00,61.9,44.6,30.17,ESE,112,0.0,0.0,53,0.00,,,0.00,meteohub,2013-06-07 01:12:00,
2013-06-06 21:17:00,61.7,45.0,30.17,NNE,22,0.0,0.0,54,0.00,,,0.00,meteohub,2013-06-07 01:17:00,
2013-06-06 21:27:00,61.2,45.3,30.17,East,90,0.0,0.0,56,0.00,,,0.00,meteohub,2013-06-07 01:27:00,
2013-06-06 21:32:00,60.8,45.5,30.17,East,90,0.0,0.0,57,0.00,,,0.00,meteohub,2013-06-07 01:32:00,
2013-06-06 21:37:00,60.6,44.8,30.17,ESE,112,0.0,0.0,56,0.00,,,0.00,meteohub,2013-06-07 01:37:00,
2013-06-06 21:47:00,60.4,46.0,30.17,East,90,0.0,0.0,59,0.00,,,0.00,meteohub,2013-06-07 01:47:00,
2013-06-06 21:52:00,60.3,45.9,30.17,SE,135,0.0,0.0,59,0.00,,,0.00,meteohub,2013-06-07 01:52:00,
2013-06-06 21:57:00,60.1,45.7,30.17,NNE,22,2.0,0.0,59,0.00,,,0.00,meteohub,2013-06-07 01:57:00,
2013-06-06 22:02:00,60.1,46.6,30.17,NNW,338,0.0,3.0,61,0.00,,,0.00,meteohub,2013-06-07 02:02:00,
2013-06-06 22:07:00,59.9,46.4,30.17,North,0,2.0,3.0,61,0.00,,,0.00,meteohub,2013-06-07 02:07:00,
2013-06-06 22:12:00,60.1,46.2,30.14,NNE,22,0.0,3.0,60,0.00,,,0.00,meteohub,2013-06-07 02:12:00,
2013-06-06 22:17:00,60.3,46.4,30.14,NE,45,0.0,3.0,60,0.00,,,0.00,meteohub,2013-06-07 02:17:00,
2013-06-06 22:22:00,60.3,46.4,30.17,East,90,2.0,3.0,60,0.00,,,0.00,meteohub,2013-06-07 02:22:00,
2013-06-06 22:27:00,60.6,46.8,30.17,SSW,202,0.0,3.0,60,0.00,,,0.00,meteohub,2013-06-07 02:27:00,
2013-06-06 22:37:00,60.6,47.1,30.14,East,90,0.0,3.0,61,0.00,,,0.00,meteohub,2013-06-07 02:37:00,
2013-06-06 22:42:00,60.4,47.3,30.14,South,180,0.0,1.0,62,0.00,,,0.00,meteohub,2013-06-07 02:42:00,
2013-06-06 22:47:00,60.4,48.2,30.14,SSW,202,0.0,1.0,64,0.00,,,0.00,meteohub,2013-06-07 02:47:00,
2013-06-06 22:52:00,60.3,47.7,30.14,SW,225,0.0,0.0,63,0.00,,,0.00,meteohub,2013-06-07 02:52:00,
2013-06-06 22:57:00,60.3,48.0,30.17,SSE,158,0.0,0.0,64,0.00,,,0.00,meteohub,2013-06-07 02:57:00,
2013-06-06 23:02:00,60.3,48.4,30.17,South,180,0.0,0.0,65,0.00,,,0.00,meteohub,2013-06-07 03:02:00,
2013-06-06 23:07:00,59.9,48.6,30.17,South,180,0.0,1.0,66,0.00,,,0.00,meteohub,2013-06-07 03:07:00,
2013-06-06 23:12:00,59.7,49.1,30.17,South,180,0.0,1.0,68,0.00,,,0.00,meteohub,2013-06-07 03:12:00,
2013-06-06 23:17:00,59.4,49.6,30.17,South,180,0.0,0.0,70,0.00,,,0.00,meteohub,2013-06-07 03:17:00,
2013-06-06 23:22:00,59.2,49.5,30.17,South,180,0.0,0.0,70,0.00,,,0.00,meteohub,2013-06-07 03:22:00,
2013-06-06 23:27:00,58.8,49.5,30.17,SW,225,0.0,0.0,71,0.00,,,0.00,meteohub,2013-06-07 03:27:00,
2013-06-06 23:32:00,58.6,50.0,30.17,SW,225,0.0,0.0,73,0.00,,,0.00,meteohub,2013-06-07 03:32:00,
2013-06-06 23:37:00,58.3,49.6,30.17,SW,225,0.0,0.0,73,0.00,,,0.00,meteohub,2013-06-07 03:37:00,
2013-06-06 23:42:00,58.1,50.5,30.17,SE,135,0.0,0.0,76,0.00,,,0.00,meteohub,2013-06-07 03:42:00,
2013-06-06 23:47:00,57.9,51.1,30.17,SE,135,0.0,0.0,78,0.00,,,0.00,meteohub,2013-06-07 03:47:00,
2013-06-06 23:52:00,57.9,50.4,30.17,SE,135,0.0,0.0,76,0.00,,,0.00,meteohub,2013-06-07 03:52:00,